Location: Newark
(45.5000°N, 11.4167°E)
Time: 12:57:40
(UTC+00:00)

Vanguard 2 - Pass Details

Date: 26 August 2019
Orbit: 554 x 2937 km, 32.9° (Epoch: 22 October)

Event Time Altitude Azimuth Distance (km) Brightness Sun altitude
Rises 14:47:43 0° 260° (W) 3,885 12.2 33.0°
Reaches altitude 10° 14:50:24 10° 249° (WSW) 3,207 12.2 32.5°
Maximum altitude 14:57:25 30° 191° (S) 2,657 10.9 31.4°
Drops below altitude 10° 15:07:50 10° 138° (SE) 4,842 11.4 29.6°
Sets 15:13:01 0° 129° (SE) 6,206 11.8 28.8°
